NOAA 15 1 25338U 98030A 25183.88019246 .00000178 00000-0 90651-4 0 9999 2 25338 98.5339 208.4495 0009062 293.8829 66.1402 14.26991038411479 NAVSTAR 50 (USA 156) 1 26690U 01004A 25182.39975279 -.00000096 00000-0 00000-0 0 9993 2 26690 54.9444 45.5527 0002749 20.6099 335.4017 1.91588452176810 METEOSAT 8 (MSG 1) 1 27509U 02040B 25183.50250848 -.00000182 00000-0 00000-0 0 9992 2 27509 10.5651 43.9622 0015190 66.6942 164.6921 0.97905994 83516 NAVSTAR 51 (USA 166) 1 27663U 03005A 25183.67734992 .00000030 00000-0 00000-0 0 9991 2 27663 54.9687 228.8586 0142529 50.2429 2.7245 2.00553464164302 NAVSTAR 54 (USA 177) 1 28190U 04009A 25183.96307208 -.00000081 00000-0 00000-0 0 9997 2 28190 55.1231 289.7762 0106234 162.1049 256.8331 2.00567010155942 NAVSTAR 55 (USA 178) 1 28361U 04023A 25183.39214361 -.00000031 00000-0 00000-0 0 9992 2 28361 54.6287 100.8602 0155691 292.1302 248.9962 2.00565036154026 NAVSTAR 56 (USA 180) 1 28474U 04045A 25183.34409164 -.00000101 00000-0 00000-0 0 9991 2 28474 55.3167 338.9719 0165800 304.2175 87.1997 2.00562252151413 NOAA 18 1 28654U 05018A 25183.90877792 .00000050 00000-0 49615-4 0 9991 2 28654 98.8422 263.1229 0015187 65.7708 294.5049 14.13616170 36967 NAVSTAR 57 (USA 183) 1 28874U 05038A 25180.34774490 -.00000065 00000-0 00000-0 0 9991 2 28874 55.1710 287.3962 0132695 290.2585 62.3534 2.00559417144751 METEOSAT 9 (MSG 2) 1 28912U 05049B 25183.71847751 .00000126 00000-0 00000-0 0 9998 2 28912 8.5628 57.5128 0002369 3.9213 164.0743 1.00279649 3500 GOES 13 1 29155U 06018A 25183.52585770 -.00000155 00000-0 00000-0 0 9997 2 29155 3.6223 80.7255 0060479 267.1158 240.1675 0.98792409 39794 METOP-A 1 29499U 06044A 25183.92136586 .00002155 00000-0 25925-3 0 9995 2 29499 98.3311 275.3355 0180264 101.6246 350.0478 14.74118745973964 NAVSTAR 59 (USA 192) 1 29601U 06052A 25183.91515694 .00000036 00000-0 00000-0 0 9999 2 29601 55.0111 227.8557 0084720 86.6249 274.4138 2.00564177136400 NAVSTAR 60 (USA 196) 1 32260U 07047A 25183.22382032 -.00000042 00000-0 00000-0 0 9999 2 32260 53.8379 94.5158 0162064 81.8774 279.9706 2.00571530129797 NAVSTAR 61 (USA 199) 1 32384U 07062A 25183.78440694 -.00000079 00000-0 00000-0 0 9993 2 32384 55.3155 288.1788 0032436 159.1581 14.2997 2.00569196128502 NOAA 19 1 33591U 09005A 25183.91900257 .00000141 00000-0 99283-4 0 9998 2 33591 98.9963 248.7536 0012743 299.9077 60.0829 14.13384361845143 GOES 14 1 35491U 09033A 25183.61655664 -.00000061 00000-0 00000-0 0 9993 2 35491 0.7759 87.7982 0002531 65.6763 241.1997 1.00274300 3088 GOES 15 1 36411U 10008A 25183.55530961 .00000046 00000-0 00000-0 0 9997 2 36411 0.3744 85.3698 0002828 109.1319 347.4987 1.00272382 56130 ELEKTRO-L 1 37344U 11001A 25182.99628015 -.00000168 00000-0 00000-0 0 9998 2 37344 8.8884 58.0036 0004860 31.0433 169.3678 1.00246977 52972 COSMOS 2471 (GLONASS) 1 37372U 11009A 25181.87405094 -.00000071 00000-0 00000-0 0 9996 2 37372 65.6066 326.3373 0008523 328.8204 24.3679 2.12911489111590 NAVSTAR 66 (USA 232) 1 37753U 11036A 25183.82920752 -.00000097 00000-0 00000-0 0 9997 2 37753 56.7029 345.5984 0135800 60.5238 278.6369 2.00566301102260 GALILEO-PFM 1 37846U 11060A 25182.07053168 -.00000098 00000-0 00000-0 0 9992 2 37846 57.0926 351.2807 0002816 54.4070 305.6195 1.70475897 85136 GALILEO-FM2 1 37847U 11060B 25181.41096859 -.00000099 00000-0 00000-0 0 9995 2 37847 57.0934 351.2989 0002699 11.0765 349.5191 1.70476022 85130 LUCH 5A 1 37951U 11074B 25183.52830727 -.00000046 00000-0 00000-0 0 9992 2 37951 7.8639 79.0505 0003467 41.7788 157.2007 1.00269345 49545 METEOSAT 10 (MSG 3) 1 38552U 12035B 25183.85230032 .00000004 00000-0 00000-0 0 9990 2 38552 3.8439 62.0644 0000767 55.2305 111.1160 1.00278882 47350 METOP-B 1 38771U 12049A 25183.90731545 .00000079 00000-0 55681-4 0 9990 2 38771 98.5757 237.4665 0000406 87.4737 272.6487 14.21469085663649 NAVSTAR 67 (USA 239) 1 38833U 12053A 25183.81720991 .00000070 00000-0 00000-0 0 9999 2 38833 53.5414 157.9078 0166867 60.8986 300.7416 2.00563246 92434 GALILEO-FM3 1 38857U 12055A 25182.11028188 -.00000012 00000-0 00000-0 0 9995 2 38857 55.5962 111.1898 0004482 295.3199 64.6183 1.70473548 79025 NAVSTAR 68 (USA 242) 1 39166U 13023A 25182.18546223 -.00000072 00000-0 00000-0 0 9993 2 39166 54.7858 283.2534 0132927 48.1453 313.0148 2.00560998 88847 INSAT 3D 1 39216U 13038B 25183.87786418 -.00000331 00000-0 00000-0 0 9992 2 39216 1.0227 87.3345 0000633 29.3457 250.0329 1.00274878 43574 NAVSTAR 69 (USA 248) 1 39533U 14008A 25183.67974290 .00000076 00000-0 00000-0 0 9992 2 39533 53.6185 163.5712 0078800 226.1423 133.1912 2.00564703 82671 LUCH 5V 1 39727U 14023A 25183.88778139 -.00000263 00000-0 00000-0 0 9990 2 39727 4.2569 73.0951 0002173 64.4378 197.9862 1.00272621 40856 NAVSTAR 70 (USA 251) 1 39741U 14026A 25182.96126185 -.00000098 00000-0 00000-0 0 9991 2 39741 56.6427 345.1402 0034680 319.6322 40.1133 2.00573145 81516 NAVSTAR 71 (USA 256) 1 40105U 14045A 25183.05058527 -.00000025 00000-0 00000-0 0 9993 2 40105 55.1262 102.4322 0029995 115.8760 244.4383 2.00562216 79052 GALILEO 5 (261) 1 40128U 14050A 25183.07541464 -.00000101 00000-0 00000-0 0 9998 2 40128 49.2562 287.7220 1633884 165.9526 199.2413 1.85519872 71823 GALILEO 6 (262) 1 40129U 14050B 25183.33227246 -.00000100 00000-0 00000-0 0 9996 2 40129 49.2715 286.7933 1634061 166.7334 198.1829 1.85520451 73992 NAVSTAR 72 (USA 258) 1 40294U 14068A 25180.92624147 -.00000086 00000-0 00000-0 0 9994 2 40294 56.7323 44.5564 0061528 67.3034 293.4036 2.00554689 78146 COSMOS 2501 (GLONASS) 1 40315U 14075A 25183.23320813 .00000076 00000-0 00000-0 0 9994 2 40315 63.6165 202.4871 0021859 211.9400 147.9736 2.13101520 82392 NAVSTAR 73 (USA 260) 1 40534U 15013A 25183.55814930 .00000046 00000-0 00000-0 0 9990 2 40534 53.2337 218.6419 0099187 35.2101 325.5039 2.00572391 74814 GALILEO 7 (263) 1 40544U 15017A 25183.60894238 -.00000095 00000-0 00000-0 0 9995 2 40544 56.8867 351.1215 0002137 256.8129 103.1659 1.70476245 63249 GALILEO 8 (264) 1 40545U 15017B 25183.27735274 -.00000096 00000-0 00000-0 0 9994 2 40545 56.8929 351.1477 0002265 228.6644 131.3183 1.70475831 26288 NAVSTAR 74 (USA 262) 1 40730U 15033A 25183.22203168 -.00000073 00000-0 00000-0 0 9990 2 40730 54.2643 281.4972 0104031 25.1976 335.3416 2.00574160 72977 GALILEO 9 (205) 1 40889U 15045A 25182.45887052 .00000027 00000-0 00000-0 0 9990 2 40889 55.0612 231.2926 0002748 17.2846 342.8004 1.70474013 61032 GALILEO 10 (206) 1 40890U 15045B 25183.85269670 .00000037 00000-0 00000-0 0 9998 2 40890 55.0600 231.2491 0001321 331.8530 28.2167 1.70473865 61083 NAVSTAR 75 (USA 265) 1 41019U 15062A 25183.27737214 -.00000090 00000-0 00000-0 0 9991 2 41019 56.7104 44.3213 0103706 228.0628 131.1014 2.00567121 70813 GALILEO 12 (269) 1 41174U 15079A 25183.43469631 -.00000015 00000-0 00000-0 0 9991 2 41174 55.6168 110.8661 0004881 335.1615 24.8007 1.70473887 58816 GALILEO 11 (268) 1 41175U 15079B 25181.30837458 -.00000012 00000-0 00000-0 0 9999 2 41175 55.6141 110.9217 0004312 336.6081 23.3554 1.70473775 59197 NAVSTAR 76 (USA 266) 1 41328U 16007A 25180.86674607 -.00000013 00000-0 00000+0 0 9996 2 41328 55.3077 103.4433 0087898 242.9185 116.1847 2.00569172 68819 GALILEO 14 (26B) 1 41549U 16030A 25181.43207387 .00000023 00000-0 00000+0 0 9998 2 41549 55.2099 231.3684 0002748 313.2420 46.8126 1.70474050 56655 GALILEO 13 (26A) 1 41550U 16030B 25183.44960380 .00000034 00000-0 00000-0 0 9995 2 41550 55.2086 231.3110 0004305 235.1969 124.8387 1.70474128 56706 GALILEO 15 (267) 1 41859U 16069A 25181.38174970 -.00000012 00000-0 00000-0 0 9999 2 41859 55.2837 110.8319 0004846 321.4057 38.5430 1.70473746 53400 GALILEO 16 (26C) 1 41860U 16069B 25182.99537011 -.00000015 00000-0 00000-0 0 9991 2 41860 55.2818 110.7828 0003877 357.2480 2.7355 1.70473730 53687 GALILEO 17 (26D) 1 41861U 16069C 25182.77667857 -.00000014 00000-0 00000-0 0 9999 2 41861 55.2842 110.7962 0004596 303.5857 56.3561 1.70474365 53549 GALILEO 18 (26E) 1 41862U 16069D 25183.50897644 -.00000016 00000-0 00000+0 0 9992 2 41862 55.2830 110.7690 0003635 310.3725 49.5814 1.70473812 53684